Regional Weather Roundup
Issued by NWS Cleveland, OH

Home | Current Version | Previous Version | Graphics & Text | Print | Product List | Glossary On
Versions: 1 2 3 4 5 6 7 8 9 10 11 12 13 14 15 16 17 18 19 20 21 22 23 24 25 26 27 28 29 30 31 32 33 34 35 36 37 38 39 40 41 42 43 44 45 46 47 48 49 50
000
ASUS41 KCLE 281812
RWRCLE
OHIO REGIONAL WEATHER ROUNDUP
NATIONAL WEATHER SERVICE WILMINGTON, OH
200 PM EDT THU APR 28 2016

NOTE: "FAIR" INDICATES FEW OR NO CLOUDS BELOW 12,000 FEET WITH NO
SIGNIFICANT WEATHER AND/OR OBSTRUCTIONS TO VISIBILITY.

OHZ001>008-015>018-024>027-034-035-043-044-281900-
   NORTHWEST OHIO

CITY           SKY/WX    TMP DP  RH WIND       PRES   REMARKS
DEFIANCE       CLOUDY    52  42  69 E15       29.91F
FINDLAY        CLOUDY    49  42  77 E8        29.90R
TOLEDO EXPRESS CLOUDY    48  40  73 NE18G24   29.93S
TOLEDO EXEC    CLOUDY    47  39  74 E14G22    29.95R
LIMA           CLOUDY    50  47  89 E10       29.88S
$$

OHZ009>014-019>023-028>033-038-089-281900-
   NORTHEAST OHIO

CITY           SKY/WX    TMP DP  RH WIND       PRES   REMARKS
CLE-HOPKINS    LGT RAIN  47  44  90 NE14      29.93F FOG
CLE-LAKEFRONT  LGT RAIN  47  43  86 NE10      29.92F FOG
CUY CO. ARPT   LGT RAIN  50  45  81 E7        29.94S FOG
LORAIN-ELYRIA  LGT RAIN  45  41  86 E8        29.92S
ASHTABULA      CLOUDY    48  41  76 E6        29.95S
AKRON-CANTON   CLOUDY    47  43  86 NE10      29.90R FOG
WOOSTER        CLOUDY    48  45  89 NE10      29.91R
MANSFIELD      CLOUDY    47  46  97 E9        29.89S FOG
YOUNGSTOWN     LGT RAIN  45  42  89 E9        29.91F FOG
$$

OHZ042-051>053-060>062-070>072-077>081-281900-
  SOUTHWEST OHIO

CITY           SKY/WX    TMP DP  RH WIND       PRES   REMARKS
CINC-COVINGTON PTSUNNY   72  61  68 SW15G21   29.84R
CINC-LUNKEN    PTSUNNY   74  65  73 SW9       29.82F
HAMILTON       CLOUDY    70  63  78 W13G18    29.84S
DAYTON         CLOUDY    61  55  81 W3        29.86S
WRIGHT-PAT AFB CLOUDY    61  58  90 VRB1      29.85R
DAYTON GENERAL CLOUDY    63  58  83 NW3       29.83S HAZE
WILMINGTON     PTSUNNY   70  63  78 SW15      29.81F
$$

OHZ036-037-039>041-045>050-054>059-063>069-073>076-082>088-281900-
  CENTRAL AND SOUTHEAST OHIO

CITY           SKY/WX    TMP DP  RH WIND       PRES   REMARKS
COLUMBUS       CLOUDY    64  53  67 CALM      29.85S
OSU AIRPORT    CLOUDY    62  51  67 VRB3      29.85S
BOLTON FIELD   CLOUDY    63  55  77 CALM      29.85S
RICKENBACK AFB CLOUDY    63  57  80 CALM      29.84S
NEWARK         CLOUDY    64  52  64 NW3       29.85S
MARION         CLOUDY    51  47  86 NE10      29.88S
LANCASTER      CLOUDY    65  59  81 SW6       29.85F
ZANESVILLE     PTSUNNY   65  55  70 CALM      29.86S
NEW PHILLY     CLOUDY    51  47  86 NE5       29.89S
$$




USA.gov is the U.S. government's official web portal to all federal, state and local government web resources and services.